EW0520 Weather Reports


Display with metric or nautical units.
time (UTC)temp
F
wind
direction
speed
MPH
gust
MPH
rain 1hr
in
rain 24hr
in
rain mn
in
humidity
%
barometer
mb
20260506043507 47 322 4.0 11.0 0.06 0.91 0.03 96 1007.6
20260506043006 47 333 4.0 9.0 0.05 0.90 0.02 96 1007.6
20260506042506 47 334 3.0 8.0 0.06 0.90 0.02 97 1007.7
20260506042007 48 322 2.0 5.0 0.06 0.90 0.02 97 1007.7
20260506041507 48 317 2.0 5.0 0.06 0.89 0.01 97 1007.8
20260506041007 48 317 2.0 6.0 0.06 0.88 0.00 97 1007.8
20260506040507 48 315 2.0 6.0 0.07 0.88 0.00 97 1007.8
20260506040007 48 302 2.0 4.0 0.08 0.88 0.00 97 1007.8
20260506035507 48 297 2.0 4.0 0.08 0.87 0.87 96 1007.9
20260506035007 48 304 2.0 8.0 0.08 0.86 0.86 96 1007.9
20260506034507 48 284 2.0 8.0 0.09 0.86 0.86 96 1008.0
20260506033507 48 305 2.0 6.0 0.13 0.85 0.85 97 1007.8
20260506033006 48 276 1.0 3.0 0.15 0.85 0.85 97 1008.4
20260506032507 48 276 0.0 3.0 0.15 0.84 0.84 97 1008.2
20260506032006 48 276 0.0 2.0 0.16 0.84 0.84 97 1008.3
20260506031507 48 276 1.0 4.0 0.16 0.83 0.83 97 1008.3
20260506031006 48 276 2.0 7.0 0.16 0.82 0.82 97 1008.3
20260506030507 48 281 2.0 7.0 0.15 0.81 0.81 96 1008.2
20260506025507 48 351 2.0 5.0 0.15 0.79 0.79 97 1007.7
20260506024507 48 355 2.0 6.0 0.15 0.77 0.77 96 1007.6
20260506024006 48 335 2.0 6.0 0.14 0.74 0.74 96 1007.6
20260506023507 48 288 1.0 4.0 0.13 0.72 0.72 96 1007.5
20260506023006 48 284 1.0 3.0 0.13 0.70 0.70 96 1007.7
20260506022507 48 284 1.0 3.0 0.13 0.69 0.69 96 1007.7
20260506022006 48 284 1.0 3.0 0.13 0.68 0.68 96 1007.6
20260506021507 48 284 1.0 4.0 0.13 0.67 0.67 96 1007.6
20260506021007 48 284 1.0 4.0 0.12 0.66 0.66 97 1007.6
20260506020506 48 283 2.0 4.0 0.12 0.66 0.66 97 1007.6
20260506020007 48 281 1.0 4.0 0.12 0.65 0.65 96 1007.7
20260506015506 48 279 1.0 2.0 0.11 0.64 0.64 96 1007.6
20260506015007 48 279 0.0 2.0 0.10 0.63 0.63 96 1007.6
20260506014507 48 279 0.0 2.0 0.09 0.62 0.62 96 1007.8
20260506014007 48 279 0.0 2.0 0.07 0.60 0.60 96 1007.7
20260506013507 49 357 1.0 6.0 0.06 0.59 0.59 96 1007.7
20260506013007 49 353 2.0 6.0 0.05 0.57 0.57 96 1007.7
20260506012507 49 15 1.0 3.0 0.04 0.56 0.56 96 1007.5
20260506012006 49 48 1.0 3.0 0.03 0.55 0.55 96 1007.3
20260506011507 48 50 1.0 4.0 0.02 0.54 0.54 96 1007.1
20260506011006 48 37 1.0 4.0 0.03 0.54 0.54 96 1007.2
20260506010507 48 24 1.0 4.0 0.04 0.54 0.54 96 1007.2
20260506010006 48 19 0.0 2.0 0.05 0.53 0.53 96 1007.3
20260506005006 48 19 1.0 3.0 0.06 0.53 0.53 96 1007.2
20260506004507 48 19 1.0 3.0 0.07 0.53 0.53 96 1007.2
20260506003007 48 25 1.0 4.0 0.11 0.52 0.52 96 1007.0
20260506002506 48 9 2.0 5.0 0.20 0.52 0.52 96 1007.0
20260506002007 48 326 2.0 5.0 0.22 0.52 0.52 96 1007.1
20260506001506 48 302 1.0 4.0 0.25 0.52 0.52 96 1007.2
20260506001007 48 302 2.0 4.0 0.24 0.51 0.51 96 1007.3
20260505235506 49 300 1.0 4.0 0.21 0.47 0.47 95 1007.7
20260505234507 49 311 2.0 5.0 0.21 0.46 0.46 96 1007.4
20260505234006 49 318 3.0 12.0 0.20 0.45 0.45 95 1007.2
20260505233507 49 307 5.0 17.0 0.19 0.44 0.44 95 1007.2
20260505233007 50 301 5.0 17.0 0.13 0.38 0.38 95 1008.1
20260505232006 50 337 4.0 12.0 0.05 0.29 0.29 95 1007.0
20260505231507 50 337 4.0 10.0 0.04 0.27 0.27 95 1007.0
20260505231006 50 338 3.0 9.0 0.05 0.27 0.27 95 1007.0
20260505230507 50 355 4.0 9.0 0.04 0.26 0.26 95 1007.0
20260505230007 51 352 4.0 9.0 0.04 0.26 0.26 95 1006.9
20260505225507 51 337 3.0 6.0 0.04 0.26 0.26 95 1007.0
20260505225006 51 325 2.0 6.0 0.04 0.25 0.25 95 1006.9
20260505224506 51 336 2.0 6.0 0.04 0.25 0.25 95 1007.0
20260505224006 51 346 2.0 6.0 0.04 0.25 0.25 95 1007.1
20260505223506 51 336 2.0 10.0 0.04 0.25 0.25 95 1007.2
20260505223007 52 320 2.0 10.0 0.07 0.25 0.25 95 1007.3
20260505222507 52 310 3.0 10.0 0.12 0.24 0.24 95 1007.3
20260505222006 52 312 5.0 12.0 0.14 0.24 0.24 95 1007.1
20260505221006 54 317 4.0 10.0 0.12 0.22 0.22 95 1007.3
20260505220506 55 323 4.0 10.0 0.12 0.22 0.22 95 1006.8
20260505220007 56 298 2.0 8.0 0.12 0.22 0.22 95 1007.0
20260505215506 56 244 1.0 3.0 0.12 0.22 0.22 95 1007.1
20260505215007 56 250 1.0 4.0 0.14 0.21 0.21 95 1006.9
20260505214006 56 263 1.0 4.0 0.16 0.21 0.21 95 1007.0
20260505213506 56 266 2.0 10.0 0.16 0.21 0.21 95 1007.0
20260505213006 56 273 3.0 10.0 0.12 0.17 0.17 94 1007.2
20260505212507 56 284 2.0 7.0 0.07 0.12 0.12 94 1007.0
20260505212007 56 289 1.0 5.0 0.05 0.10 0.10 94 1006.7
20260505211506 56 307 1.0 3.0 0.05 0.10 0.10 94 1006.6
20260505211007 56 318 1.0 6.0 0.05 0.10 0.10 94 1006.6
20260505210506 56 322 1.0 6.0 0.05 0.10 0.10 94 1006.7
20260505210007 56 312 1.0 4.0 0.05 0.10 0.10 93 1006.7
20260505205506 56 294 2.0 9.0 0.05 0.10 0.10 93 1006.9
20260505205006 56 296 4.0 9.0 0.02 0.07 0.07 92 1007.0
20260505204506 57 301 3.0 9.0 0.01 0.06 0.06 92 1006.9
20260505203506 58 316 3.0 7.0 0.00 0.05 0.05 91 1006.7
20260505203006 58 309 2.0 7.0 0.00 0.05 0.05 91 1006.6
20260505202507 59 306 2.0 7.0 0.00 0.05 0.05 93 1006.6
20260505201506 59 268 1.0 3.0 0.01 0.05 0.05 93 1006.6
20260505201006 59 268 1.0 4.0 0.02 0.05 0.05 93 1006.7
20260505200506 59 267 2.0 4.0 0.03 0.05 0.05 92 1006.6
20260505200007 60 266 2.0 4.0 0.04 0.05 0.05 92 1006.6
20260505195506 59 266 1.0 4.0 0.04 0.05 0.05 92 1006.6
20260505194006 59 264 2.0 6.0 0.05 0.05 0.05 92 1006.6
20260505193506 59 251 2.0 6.0 0.05 0.05 0.05 91 1006.5
20260505193006 59 232 1.0 3.0 0.05 0.05 0.05 90 1006.9
20260505192506 59 226 2.0 6.0 0.04 0.04 0.04 89 1007.0
20260505192006 59 228 2.0 6.0 0.04 0.04 0.04 88 1007.1
20260505191507 59 237 3.0 10.0 0.04 0.04 0.04 87 1007.1
20260505191006 60 247 6.0 13.0 0.03 0.03 0.03 84 1007.2
20260505190507 61 252 6.0 13.0 0.02 0.02 0.02 81 1007.2
20260505190006 62 254 6.0 12.0 0.01 0.01 0.01 77 1007.1
20260505185506 63 251 6.0 14.0 0.00 0.00 0.00 73 1007.0
20260505185006 64 247 7.0 14.0 0.00 0.00 0.00 69 1007.1
20260505184506 64 250 7.0 17.0 0.00 0.00 0.00 69 1007.1
20260505184006 64 248 7.0 19.0 0.00 0.00 0.00 68 1007.0
20260505183506 64 242 7.0 21.0 0.00 0.00 0.00 68 1007.0
20260505183006 64 251 8.0 21.0 0.00 0.00 0.00 68 1007.0
20260505182506 64 268 8.0 19.0 0.00 0.00 0.00 68 1007.1
20260505181006 65 267 6.0 13.0 0.00 0.00 0.00 67 1007.0
20260505180506 65 267 6.0 11.0 0.00 0.00 0.00 68 1006.9
20260505180006 65 268 7.0 14.0 0.00 0.00 0.00 67 1006.9
20260505175507 65 270 9.0 16.0 0.00 0.00 0.00 66 1006.8
20260505175006 65 269 9.0 16.0 0.00 0.00 0.00 66 1006.8
20260505174506 66 266 10.0 16.0 0.00 0.00 0.00 65 1006.7
20260505174006 66 262 11.0 23.0 0.00 0.00 0.00 64 1006.7
20260505172506 67 255 11.0 24.0 0.00 0.00 0.00 61 1006.5
20260505171506 67 256 11.0 25.0 0.00 0.00 0.00 61 1006.4
20260505171006 67 258 10.0 25.0 0.00 0.00 0.00 60 1006.3
20260505170006 67 252 9.0 16.0 0.00 0.00 0.00 62 1006.5
20260505165506 67 247 8.0 16.0 0.00 0.00 0.00 62 1006.3
20260505163506 67 250 10.0 23.0 0.00 0.00 0.00 61 1006.1
20260505163008 67 251 10.0 23.0 0.00 0.00 0.00 60 1006.1
20260505162506 68 254 9.0 19.0 0.00 0.00 0.00 59 1006.1
20260505162006 69 246 10.0 29.0 0.00 0.00 0.00 59 1006.2
20260505161007 70 254 9.0 24.0 0.00 0.00 0.00 59 1006.1
20260505160506 69 248 11.0 20.0 0.00 0.00 0.00 60 1006.0
20260505152506 66 247 11.0 24.0 0.00 0.00 0.00 63 1006.0
20260505152006 67 248 9.0 20.0 0.00 0.00 0.00 64 1005.9
20260505151006 66 251 11.0 26.0 0.00 0.00 0.00 64 1006.0
20260505140505 65 208 7.0 18.0 0.00 0.00 0.00 69 1005.8
20260505125006 60 220 6.0 16.0 0.00 0.00 0.00 76 1005.4
20260505124505 60 217 6.0 18.0 0.00 0.00 0.00 76 1005.3
20260505124006 60 219 7.0 18.0 0.00 0.00 0.00 75 1005.2
20260505123505 60 219 6.0 15.0 0.00 0.00 0.00 76 1005.3
20260505123006 60 208 5.0 13.0 0.00 0.00 0.00 76 1005.3
20260505122506 60 209 6.0 14.0 0.00 0.00 0.00 75 1005.3
20260505122006 60 212 7.0 15.0 0.00 0.00 0.00 75 1005.3
20260505120506 60 207 7.0 17.0 0.00 0.00 0.00 75 1004.9
20260505120006 60 214 6.0 17.0 0.00 0.00 0.00 76 1005.1
20260505115506 60 217 6.0 15.0 0.00 0.00 0.00 77 1005.1
20260505115005 61 220 7.0 14.0 0.00 0.00 0.00 74 1005.2
20260505114506 61 220 7.0 14.0 0.00 0.00 0.00 72 1005.2
20260505114006 62 216 8.0 19.0 0.00 0.00 0.00 72 1005.1
20260505113506 62 218 7.0 19.0 0.00 0.00 0.00 71 1004.7
20260505113006 62 220 6.0 15.0 0.00 0.00 0.00 71 1004.6
20260505112506 62 214 8.0 17.0 0.00 0.00 0.00 69 1004.6
20260505112006 62 212 7.0 17.0 0.00 0.00 0.00 69 1004.7
20260505111506 62 220 6.0 14.0 0.00 0.00 0.00 69 1004.6
20260505111006 62 219 6.0 14.0 0.00 0.00 0.00 69 1004.8
20260505110505 62 216 7.0 16.0 0.00 0.00 0.00 69 1004.6
20260505102006 63 221 8.0 21.0 0.00 0.00 0.00 66 1004.0
20260505101506 63 220 9.0 22.0 0.00 0.00 0.00 66 1004.0
20260505100505 63 224 9.0 18.0 0.00 0.00 0.00 66 1003.7
20260505100006 63 219 8.0 18.0 0.00 0.00 0.00 66 1003.6
20260505095505 63 217 8.0 17.0 0.00 0.00 0.00 67 1003.5
20260505095006 63 219 8.0 19.0 0.00 0.00 0.00 67 1003.5
20260505094505 63 215 9.0 19.0 0.00 0.00 0.00 67 1003.4
20260505093506 63 213 8.0 17.0 0.00 0.00 0.00 66 1003.2
20260505093005 63 212 7.0 17.0 0.00 0.00 0.00 66 1003.2
20260505092506 63 217 8.0 22.0 0.00 0.00 0.00 66 1003.1
20260505092005 63 217 8.0 22.0 0.00 0.00 0.00 66 1003.0
20260505091506 63 216 8.0 22.0 0.00 0.00 0.00 66 1003.1
20260505091006 64 218 10.0 22.0 0.00 0.00 0.00 66 1003.1
20260505090506 63 221 10.0 19.0 0.00 0.00 0.00 66 1003.3
20260505090006 63 222 8.0 18.0 0.00 0.00 0.00 66 1003.3
20260505085505 63 220 7.0 19.0 0.00 0.00 0.00 66 1003.2
20260505085006 63 221 7.0 19.0 0.00 0.00 0.00 66 1003.2
20260505084005 64 218 9.0 19.0 0.00 0.00 0.00 66 1003.2
20260505083506 64 216 8.0 19.0 0.00 0.00 0.00 66 1003.3
20260505083005 64 216 7.0 18.0 0.00 0.00 0.00 66 1003.1
20260505082506 64 215 8.0 18.0 0.00 0.00 0.00 66 1003.1
20260505082006 64 213 8.0 18.0 0.00 0.00 0.00 66 1003.1
20260505081006 64 210 8.0 18.0 0.00 0.00 0.00 66 1002.9
20260505080505 64 202 8.0 18.0 0.00 0.00 0.00 66 1002.9
20260505075005 64 212 8.0 20.0 0.00 0.00 0.00 65 1002.6
20260505074506 64 212 8.0 21.0 0.00 0.00 0.00 66 1002.6
20260505074005 64 213 8.0 21.0 0.00 0.00 0.00 67 1002.7
20260505073506 64 208 9.0 20.0 0.00 0.00 0.00 66 1002.7
20260505072506 64 211 7.0 15.0 0.00 0.00 0.00 66 1002.8
20260505072006 64 212 8.0 22.0 0.00 0.00 0.00 65 1002.7
20260505071005 64 212 9.0 20.0 0.00 0.00 0.00 65 1002.7
20260505070505 64 212 9.0 18.0 0.00 0.00 0.00 65 1002.7
20260505070006 64 207 7.0 15.0 0.00 0.00 0.00 65 1002.8
20260505064506 65 210 9.0 20.0 0.00 0.00 0.00 64 1002.7
20260505064006 65 213 8.0 21.0 0.00 0.00 0.00 64 1002.8
20260505063505 65 217 8.0 21.0 0.00 0.00 0.00 64 1002.9
20260505063005 65 216 9.0 29.0 0.00 0.00 0.00 63 1002.8
20260505062506 66 212 9.0 29.0 0.00 0.00 0.00 63 1002.9
20260505062005 66 211 9.0 24.0 0.00 0.00 0.00 63 1002.9
20260505061506 66 218 10.0 24.0 0.00 0.00 0.00 62 1003.1
20260505061006 66 222 11.0 24.0 0.00 0.00 0.00 62 1003.1
20260505060505 66 216 11.0 24.0 0.00 0.00 0.00 63 1003.3
20260505060006 66 209 9.0 19.0 0.00 0.00 0.00 63 1003.2
20260505055505 65 211 9.0 19.0 0.00 0.00 0.00 64 1003.4
20260505054006 64 214 6.0 18.0 0.00 0.00 0.00 65 1003.6
20260505053506 64 207 6.0 18.0 0.00 0.00 0.00 67 1003.6
20260505053005 64 204 6.0 13.0 0.00 0.00 0.00 67 1003.7
20260505052506 63 206 5.0 13.0 0.00 0.00 0.00 68 1003.7
20260505052005 63 203 5.0 12.0 0.00 0.00 0.00 69 1003.8
20260505051506 63 197 5.0 12.0 0.00 0.00 0.00 69 1003.9
20260505051005 63 190 5.0 13.0 0.00 0.00 0.00 69 1003.9
20260505050506 63 196 5.0 13.0 0.00 0.00 0.00 69 1004.0